KK4OHF Weather Reports


time (UTC)temp
F
wind
direction
speed
knots
gust
knots
rain 1hr
in
rain 24hr
in
rain mn
in
humidity
%
barometer
mb
20260901150005 87 248 0.9 2.6 0.00 0.00 0.00 65 1020.6
20260901145506 87 7 0.0 0.0 0.00 0.00 0.00 67 1020.6
20260901145005 87 249 0.0 0.0 0.00 0.00 0.00 70 1020.6
20260901144505 86 147 0.0 0.0 0.00 0.00 0.00 70 1020.6
20260901144005 86 146 0.0 0.0 0.00 0.00 0.00 73 1020.6
20260901143005 86 244 0.0 0.9 0.00 0.00 0.00 71 1020.6
20260901142505 85 30 0.0 0.9 0.00 0.00 0.00 73 1020.6
20260901142005 85 30 0.0 1.7 0.00 0.00 0.00 73 1020.6
20260901141005 83 16 0.0 0.9 0.00 0.00 0.00 76 1020.6
20260901140505 82 16 0.0 0.9 0.00 0.00 0.00 76 1020.6
20260901135504 80 16 0.0 0.0 0.00 0.00 0.00 80 1020.5
20260901135005 79 16 0.0 1.7 0.00 0.00 0.00 83 1020.5
20260901134505 77 16 0.9 1.7 0.00 0.00 0.00 86 1020.6
20260901134005 75 16 0.9 1.7 0.00 0.00 0.00 89 1020.6
20260901133505 74 16 0.9 1.7 0.00 0.00 0.00 89 1020.6
20260901133005 74 16 0.9 2.6 0.00 0.00 0.00 89 1020.5
20260901132505 73 16 0.9 1.7 0.00 0.00 0.00 89 1020.5
20260901132005 73 16 0.9 1.7 0.00 0.00 0.00 89 1020.5
20260901131505 73 16 0.9 1.7 0.00 0.00 0.00 89 1020.5
20260901131006 72 16 0.9 1.7 0.00 0.00 0.00 89 1020.5
20260901130505 72 16 0.9 0.9 0.00 0.00 0.00 89 1020.5
20260901130005 72 16 0.0 0.0 0.00 0.00 0.00 89 1020.5
20260901125505 72 16 0.0 0.0 0.00 0.00 0.00 89 1020.5
20260901125005 71 16 0.0 0.9 0.00 0.00 0.00 89 1020.5
20260901124506 70 16 0.0 0.0 0.00 0.00 0.00 89 1020.5
20260901124005 70 16 0.0 0.0 0.00 0.00 0.00 89 1020.5
20260901123505 70 16 0.0 0.0 0.00 0.00 0.00 89 1020.5
20260901122505 69 16 0.0 0.0 0.00 0.00 0.00 89 1020.3
20260901122005 69 16 0.0 0.0 0.00 0.00 0.00 90 1020.0
20260901121506 69 16 0.0 0.0 0.00 0.00 0.00 90 1020.0
20260901121005 69 16 0.0 0.0 0.00 0.00 0.00 90 1020.0
20260901120505 69 16 0.0 0.9 0.00 0.00 0.00 90 1020.0
20260901120005 68 16 0.0 0.0 0.00 0.00 0.00 90 1019.8
20260901115506 68 16 0.0 0.0 0.00 0.00 0.00 90 1019.8
20260901114506 68 16 0.0 0.0 0.00 0.00 0.00 90 1019.8
20260901114006 68 16 0.0 0.0 0.00 0.00 0.00 90 1019.5
20260901113005 69 16 0.0 0.0 0.00 0.00 0.00 90 1019.3
20260901112505 69 16 0.0 0.0 0.00 0.00 0.00 90 1019.3
20260901111505 69 16 0.0 0.0 0.00 0.00 0.00 90 1019.3
20260901111005 69 16 0.0 0.0 0.00 0.00 0.00 90 1019.3
20260901110505 69 16 0.0 0.0 0.00 0.00 0.00 90 1019.3
20260901110005 69 16 0.0 0.0 0.00 0.00 0.00 90 1019.1
20260901105505 69 16 0.0 0.0 0.00 0.00 0.00 90 1019.1
20260901105005 69 16 0.0 0.0 0.00 0.00 0.00 90 1019.1
20260901104504 69 16 0.0 0.0 0.00 0.00 0.00 90 1019.1
20260901104005 69 16 0.0 0.0 0.00 0.00 0.00 90 1019.1
20260901103505 69 16 0.0 0.0 0.00 0.00 0.00 90 1019.1
20260901103005 69 16 0.0 0.0 0.00 0.00 0.00 90 1018.9
20260901102505 69 16 0.0 0.0 0.00 0.00 0.00 90 1018.9
20260901102006 69 16 0.0 0.0 0.00 0.00 0.00 90 1018.9
20260901101505 69 16 0.0 0.0 0.00 0.00 0.00 90 1018.9
20260901101006 69 16 0.0 0.0 0.00 0.00 0.00 90 1018.9
20260901100506 69 16 0.0 0.0 0.00 0.00 0.00 90 1018.9
20260901100005 69 16 0.0 0.0 0.00 0.00 0.00 90 1018.9
20260901095506 69 16 0.0 0.9 0.00 0.00 0.00 90 1018.9
20260901094506 69 16 0.0 0.0 0.00 0.00 0.00 90 1019.0
20260901093505 69 16 0.0 0.0 0.00 0.00 0.00 89 1019.0
20260901092006 70 16 0.0 0.9 0.00 0.00 0.00 89 1018.7
20260901091504 70 16 0.0 0.0 0.00 0.00 0.00 90 1018.7
20260901091005 70 16 0.0 0.0 0.00 0.00 0.00 90 1018.7
20260901090005 70 16 0.0 0.0 0.00 0.00 0.00 90 1018.7
20260901085504 70 16 0.0 0.0 0.00 0.00 0.00 90 1018.7
20260901085006 70 16 0.0 0.0 0.00 0.00 0.00 90 1018.7
20260901084006 70 16 0.0 0.0 0.00 0.00 0.00 89 1018.7
20260901083506 70 16 0.0 0.0 0.00 0.00 0.00 89 1018.7
20260901083013 70 16 0.0 0.9 0.00 0.00 0.00 89 1018.7
20260901082005 70 16 0.0 0.9 0.00 0.00 0.00 89 1018.6
20260901081005 70 16 0.0 0.9 0.00 0.00 0.00 89 1018.6
20260901080505 70 16 0.0 0.0 0.00 0.00 0.00 89 1018.6
20260901080005 70 16 0.0 0.0 0.00 0.00 0.00 89 1018.4
20260901075505 70 16 0.0 0.0 0.00 0.00 0.00 89 1018.4
20260901075006 70 16 0.0 0.0 0.00 0.00 0.00 89 1018.5
20260901074504 71 16 0.0 0.0 0.00 0.00 0.00 89 1018.5
20260901074005 71 16 0.0 0.0 0.00 0.00 0.00 89 1018.5
20260901073005 71 16 0.0 0.9 0.00 0.00 0.00 89 1018.4
20260901072505 71 16 0.0 0.9 0.00 0.00 0.00 89 1018.4
20260901072005 71 16 0.0 0.0 0.00 0.00 0.00 89 1018.6
20260901071505 71 16 0.0 0.0 0.00 0.00 0.00 89 1018.6
20260901071006 71 16 0.0 0.0 0.00 0.00 0.00 89 1018.6
20260901070506 71 16 0.0 0.0 0.00 0.00 0.00 89 1018.6
20260901070005 71 16 0.0 0.0 0.00 0.00 0.00 89 1018.7
20260901065505 71 16 0.0 0.0 0.00 0.00 0.00 89 1018.7
20260901065005 71 16 0.0 0.0 0.00 0.00 0.00 89 1018.7
20260901064505 71 16 0.0 0.0 0.00 0.00 0.00 89 1018.7
20260901063505 71 16 0.0 0.0 0.00 0.00 0.00 89 1018.7
20260901062505 71 16 0.0 0.0 0.00 0.00 0.00 89 1018.9
20260901062005 72 16 0.0 0.0 0.00 0.00 0.00 89 1018.9
20260901061506 72 16 0.0 0.0 0.00 0.00 0.00 89 1018.9
20260901061005 72 16 0.0 0.0 0.00 0.00 0.00 89 1018.9
20260901060505 72 16 0.0 0.9 0.00 0.00 0.00 88 1018.9
20260901060006 72 16 0.0 0.0 0.00 0.00 0.00 89 1019.0
20260901055505 72 16 0.0 0.0 0.00 0.00 0.00 89 1019.0
20260901055006 72 16 0.0 0.0 0.00 0.00 0.00 88 1019.0
20260901054505 72 16 0.0 0.0 0.00 0.00 0.00 88 1019.0
20260901054005 72 16 0.0 0.0 0.00 0.00 0.00 88 1019.0
20260901053505 72 16 0.0 0.0 0.00 0.00 0.00 88 1019.0
20260901053005 72 16 0.0 0.0 0.00 0.00 0.00 88 1019.0
20260901052505 72 16 0.0 0.0 0.00 0.00 0.00 88 1019.0
20260901051505 73 16 0.0 0.0 0.00 0.00 0.00 88 1019.0
20260901051006 73 16 0.0 0.0 0.00 0.00 0.00 88 1019.0
20260901050505 73 16 0.0 0.9 0.00 0.00 0.00 88 1019.0
20260901050005 73 16 0.0 0.9 0.00 0.00 0.00 88 1019.0
20260901045005 73 16 0.0 0.0 0.00 0.00 0.00 88 1019.0
20260901044506 73 16 0.0 0.0 0.00 0.00 0.00 88 1019.0
20260901043505 73 16 0.0 0.9 0.00 0.00 0.00 88 1019.0
20260901042005 74 16 0.0 0.0 0.00 0.00 0.00 87 1019.0
20260901041505 74 16 0.0 0.0 0.00 0.00 0.00 87 1019.0
20260901041022 74 16 0.0 0.0 0.00 0.00 0.00 87 1019.0
20260901035506 74 16 0.0 0.0 0.00 0.00 0.00 87 1019.0
20260901035004 74 16 0.0 0.0 0.00 0.00 0.00 87 1019.2
20260901034505 74 16 0.0 0.0 0.00 0.00 0.00 87 1019.2
20260901033006 75 16 0.0 0.0 0.00 0.00 0.00 86 1019.0
20260901032006 75 16 0.0 0.0 0.00 0.00 0.00 86 1019.0
20260901031505 75 16 0.0 0.9 0.00 0.00 0.00 86 1019.0
20260901031005 75 16 0.0 0.0 0.00 0.00 0.00 86 1019.0
20260901030506 76 16 0.0 0.0 0.00 0.00 0.00 85 1019.0
20260901030005 76 16 0.0 0.0 0.00 0.00 0.00 85 1019.2
20260901025505 76 16 0.0 0.0 0.00 0.00 0.00 85 1019.2
20260901025005 76 16 0.0 0.0 0.00 0.00 0.00 85 1019.2
20260901024505 76 16 0.0 0.0 0.00 0.00 0.00 85 1019.1
20260901024005 76 16 0.0 0.0 0.00 0.00 0.00 85 1019.1
20260901023504 77 16 0.0 0.0 0.00 0.00 0.00 84 1019.1
20260901023005 77 16 0.0 0.0 0.00 0.00 0.00 84 1018.5
20260901022505 77 16 0.0 0.0 0.00 0.00 0.00 84 1018.5
20260901022005 77 16 0.0 0.0 0.00 0.00 0.00 84 1018.5
20260901021506 78 16 0.0 0.0 0.00 0.00 0.00 84 1018.5
20260901021005 78 16 0.0 0.0 0.00 0.00 0.00 83 1018.5
20260901015504 78 16 0.0 0.0 0.00 0.00 0.00 82 1018.5
20260901015005 79 16 0.0 0.0 0.00 0.00 0.00 82 1018.5
20260901014505 79 16 0.0 0.0 0.00 0.00 0.00 82 1018.5
20260901014005 79 16 0.0 0.0 0.00 0.00 0.00 82 1018.5
20260901013505 80 16 0.0 0.0 0.00 0.00 0.00 82 1018.5
20260901013005 80 16 0.0 0.0 0.00 0.00 0.00 82 1018.4
20260901012504 80 16 0.0 0.9 0.00 0.00 0.00 81 1018.4
20260901012006 80 16 0.0 1.7 0.00 0.00 0.00 81 1018.2
20260901011505 81 16 0.0 0.0 0.00 0.00 0.00 81 1018.2
20260901011005 81 16 0.0 0.0 0.00 0.00 0.00 80 1018.2
20260901010505 81 16 0.0 0.0 0.00 0.00 0.00 79 1018.2
20260901010005 82 16 0.0 0.0 0.00 0.00 0.00 79 1017.9
20260901005005 83 16 0.0 0.0 0.00 0.00 0.00 77 1017.9
20260901004505 83 16 0.0 0.0 0.00 0.00 0.00 77 1017.9
20260901004005 83 16 0.0 0.0 0.00 0.00 0.00 76 1017.9
20260901003505 84 16 0.0 0.0 0.00 0.00 0.00 76 1017.9
20260901003005 84 16 0.0 0.0 0.00 0.00 0.00 75 1017.9
20260901002505 84 16 0.0 0.0 0.00 0.00 0.00 73 1017.9
20260901002005 85 16 0.0 0.0 0.00 0.00 0.00 72 1017.9
20260901001505 85 16 0.0 0.0 0.00 0.00 0.00 73 1017.9
20260901000504 86 16 0.0 0.0 0.00 0.00 0.00 71 1017.9
20260901000005 87 16 0.0 0.0 0.00 0.00 0.00 70 1017.9
20260831235505 87 16 0.0 0.0 0.00 0.00 0.00 69 1017.9
20260831235005 87 16 0.0 0.0 0.00 0.00 0.00 68 1017.9
20260831234505 88 16 0.0 0.0 0.00 0.00 0.00 67 1017.9
20260831233506 88 16 0.0 0.0 0.00 0.00 0.00 65 1017.9
20260831232505 88 16 0.0 0.0 0.00 0.00 0.00 59 1017.9
20260831232005 88 16 0.0 0.0 0.00 0.00 0.00 59 1017.9
20260831231505 88 16 0.0 0.0 0.00 0.00 0.00 58 1017.9
20260831231005 88 16 0.0 0.9 0.00 0.00 0.00 58 1017.9
20260831230505 88 16 0.9 1.7 0.00 0.00 0.00 57 1017.9
20260831230006 89 16 0.9 1.7 0.00 0.00 0.00 56 1017.9
20260831225504 89 16 0.0 0.9 0.00 0.00 0.00 56 1017.9
20260831225005 89 16 0.9 1.7 0.00 0.00 0.00 55 1017.9
20260831224006 89 16 0.9 1.7 0.00 0.00 0.00 54 1018.1
20260831222006 89 36 0.9 2.6 0.00 0.00 0.00 54 1018.5
20260831221504 89 5 1.7 2.6 0.00 0.00 0.00 54 1018.5
20260831221005 89 15 0.9 2.6 0.00 0.00 0.00 55 1018.5
20260831220505 90 15 0.9 1.7 0.00 0.00 0.00 55 1018.5
20260831220005 90 15 0.9 2.6 0.00 0.00 0.00 54 1018.5
20260831215505 90 80 0.9 1.7 0.00 0.00 0.00 54 1018.5
20260831215005 90 80 0.9 1.7 0.00 0.00 0.00 52 1018.5
20260831214505 90 13 0.9 1.7 0.00 0.00 0.00 53 1018.5
20260831214004 90 13 0.9 2.6 0.00 0.00 0.00 52 1018.5
20260831213006 90 23 0.9 2.6 0.00 0.00 0.00 53 1018.5
20260831212505 91 142 0.0 1.7 0.00 0.00 0.00 53 1018.5
20260831212006 91 11 0.0 1.7 0.00 0.00 0.00 52 1018.6
20260831211505 91 11 0.9 2.6 0.00 0.00 0.00 53 1018.6
20260831210506 91 17 0.9 2.6 0.00 0.00 0.00 51 1018.5
20260831210005 91 8 1.7 2.6 0.00 0.00 0.00 53 1018.7
20260831205504 91 103 0.9 1.7 0.00 0.00 0.00 53 1018.7
20260831205005 91 73 0.9 1.7 0.00 0.00 0.00 52 1018.7
20260831204005 90 11 0.9 2.6 0.00 0.00 0.00 52 1018.9
20260831203005 91 5 0.9 1.7 0.00 0.00 0.00 53 1019.0
20260831202505 91 5 0.9 1.7 0.00 0.00 0.00 53 1019.0
20260831202006 91 351 0.9 2.6 0.00 0.00 0.00 51 1019.0
20260831201505 91 18 0.9 2.6 0.00 0.00 0.00 53 1019.0
20260831201005 92 27 1.7 4.3 0.00 0.00 0.00 52 1019.0
20260831200506 92 335 0.9 1.7 0.00 0.00 0.00 52 1019.0
20260831195506 92 104 1.7 2.6 0.00 0.00 0.00 49 1019.6
20260831195005 92 71 0.9 1.7 0.00 0.00 0.00 48 1019.6
20260831194006 91 105 0.9 2.6 0.00 0.00 0.00 53 1019.6
20260831193505 91 29 0.9 2.6 0.00 0.00 0.00 51 1019.6
20260831193004 92 22 1.7 2.6 0.00 0.00 0.00 53 1019.6
20260831192505 91 254 1.7 2.6 0.00 0.00 0.00 53 1019.6
20260831192006 90 306 0.9 2.6 0.00 0.00 0.00 54 1019.6
20260831191504 89 314 1.7 4.3 0.00 0.00 0.00 55 1019.6
20260831190504 90 9 1.7 2.6 0.00 0.00 0.00 54 1019.6
20260831190005 91 344 1.7 2.6 0.00 0.00 0.00 54 1020.0
20260831185506 92 316 0.9 2.6 0.00 0.00 0.00 53 1020.0
20260831184005 89 9 1.7 2.6 0.00 0.00 0.00 53 1020.0
20260831183505 89 310 2.6 4.3 0.00 0.00 0.00 55 1020.0
20260831183006 89 1 0.9 2.6 0.00 0.00 0.00 55 1020.0
20260831182505 90 356 0.9 2.6 0.00 0.00 0.00 57 1020.0
20260831182005 90 24 2.6 4.3 0.00 0.00 0.00 55 1020.4
20260831181505 89 21 2.6 4.3 0.00 0.00 0.00 56 1020.4
20260831181004 89 5 0.9 2.6 0.00 0.00 0.00 58 1020.4
20260831180505 89 7 1.7 2.6 0.00 0.00 0.00 56 1020.4
20260831175506 90 344 0.9 1.7 0.00 0.00 0.00 56 1020.4
20260831175006 89 242 1.7 2.6 0.00 0.00 0.00 54 1020.4
20260831174505 89 26 1.7 2.6 0.00 0.00 0.00 57 1020.5
20260831174006 89 11 1.7 2.6 0.00 0.00 0.00 58 1020.6
20260831173504 90 10 0.9 2.6 0.00 0.00 0.00 57 1020.6
20260831173005 89 58 0.9 2.6 0.00 0.00 0.00 56 1020.6
20260831172505 89 336 1.7 2.6 0.00 0.00 0.00 61 1020.6
20260831172005 89 26 0.9 2.6 0.00 0.00 0.00 59 1021.0
20260831171505 89 24 1.7 2.6 0.00 0.00 0.00 60 1021.0
20260831171005 90 30 2.6 7.0 0.00 0.00 0.00 58 1021.0
20260831170504 89 122 0.9 2.6 0.00 0.00 0.00 62 1021.0
20260831165005 89 7 2.6 4.3 0.00 0.00 0.00 61 1021.1
20260831164505 88 94 0.9 2.6 0.00 0.00 0.00 65 1021.1
20260831164005 88 9 1.7 4.3 0.00 0.00 0.00 61 1021.1
20260831163505 88 167 0.9 1.7 0.00 0.00 0.00 61 1021.1
20260831163005 88 32 0.9 2.6 0.00 0.00 0.00 66 1021.1
20260831162505 87 130 0.9 1.7 0.00 0.00 0.00 67 1021.1
20260831162005 87 26 0.9 1.7 0.00 0.00 0.00 65 1021.1
20260831161504 88 26 0.9 1.7 0.00 0.00 0.00 63 1021.1
20260831160505 88 238 0.9 1.7 0.00 0.00 0.00 64 1021.5
20260831155505 87 245 0.9 2.6 0.00 0.00 0.00 67 1021.5
20260831155005 88 172 0.9 2.6 0.00 0.00 0.00 65 1021.5
20260831154505 89 141 1.7 2.6 0.00 0.00 0.00 66 1021.5
20260831153504 88 262 0.9 2.6 0.00 0.00 0.00 68 1021.5
20260831153005 86 242 1.7 2.6 0.00 0.00 0.00 70 1021.5
20260831152505 87 25 0.9 2.6 0.00 0.00 0.00 71 1021.5
20260831152005 86 70 0.9 1.7 0.00 0.00 0.00 67 1021.5
20260831151005 85 25 0.9 1.7 0.00 0.00 0.00 72 1021.5
20260831150505 86 355 0.9 1.7 0.00 0.00 0.00 73 1021.5